Weather History for Storm Lake, IA

Change the Weather History Date:

Tuesday, March 19, 2013

  Actual Average Record
Temperature  
Mean Temperature 20 °F -  
Max Temperature 30 °F 41 °F 74 °F (2012)
Min Temperature 10 °F 26 °F 10 °F (2013)
Degree Days  
Heating Degree Days 45    
Moisture  
Dew Point 10 °F    
Average Humidity 68    
Maximum Humidity 80    
Minimum Humidity 58    
Precipitation  
Precipitation 0.00 in - - ()
Sea Level Pressure  
Sea Level Pressure 30.11 in    
Wind  
Wind Speed 15 mph (NW)    
Max Wind Speed 24 mph    
Max Gust Speed 30 mph    
Visibility 10 miles    
Events      
Averages and records for this station are not official NWS values.
T = Trace of Precipitation, MM = Missing Value Source: NWS Daily Summary

Daily Weather History Graph

Daily Weather History Graph

Search for Another Location

Airport:

Trip Planner

Search our weather history database for the weather conditions in past years. The results will help you decide how hot, cold, wet, or windy it might be!

Date:

Astronomy

Mar. 19, 2013 Rise Set
Actual Time 7:25 AM CDT 7:32 PM CDT
Civil Twilight 6:57 AM CDT 8:00 PM CDT
Nautical Twilight 6:24 AM CDT 8:33 PM CDT
Astronomical Twilight 5:50 AM CDT 9:07 PM CDT
Moon 12:09 PM CDT (3/19) 2:27 AM CDT (3/19)
Length of Visible Light 13h 03m
Length of Day
12h 06m
Waxing Crescent, 50% of the Moon is Illuminated
Mar 19
Waxing Crescent
Mar 19
First Quarter
Mar 27
Full
Apr 2
Last Quarter
Apr 10
New

Hourly Weather History & Observations

Time (CDT) Temp. Windchill Dew Point Humidity Pressure Visibility Wind Dir Wind Speed Gust Speed Precip Events Conditions
12:15 AM 15.8 °F -0.6 °F 8.6 °F 73% 29.95 in 10.0 mi NW 18.4 mph 24.2 mph N/A   Clear
12:35 AM 15.8 °F -0.2 °F 8.6 °F 73% 29.94 in 10.0 mi NW 17.3 mph 25.3 mph N/A   Clear
12:55 AM 15.8 °F 0.9 °F 6.8 °F 68% 29.95 in 10.0 mi NW 15.0 mph 20.7 mph N/A   Clear
1:15 AM 14.0 °F -2.5 °F 6.8 °F 73% 29.96 in 10.0 mi NW 17.3 mph - N/A   Clear
1:35 AM 14.0 °F -4.3 °F 5.0 °F 67% 29.98 in 10.0 mi WNW 21.9 mph - N/A   Clear
1:55 AM 14.0 °F -3.0 °F 6.8 °F 73% 29.99 in 10.0 mi WNW 18.4 mph - N/A   Clear
2:15 AM 14.0 °F -3.4 °F 6.8 °F 73% 30.00 in 10.0 mi WNW 19.6 mph - N/A   Clear
2:35 AM 14.0 °F -3.0 °F 5.0 °F 67% 30.00 in 10.0 mi WNW 18.4 mph 29.9 mph N/A   Clear
2:55 AM 14.0 °F -1.4 °F 6.8 °F 73% 30.01 in 10.0 mi WNW 15.0 mph 24.2 mph N/A   Clear
3:15 AM 14.0 °F -2.5 °F 5.0 °F 67% 30.01 in 10.0 mi WNW 17.3 mph 26.5 mph N/A   Clear
3:35 AM 14.0 °F -2.0 °F 5.0 °F 67% 30.02 in 10.0 mi WNW 16.1 mph 23.0 mph N/A   Clear
3:55 AM 14.0 °F -1.4 °F 6.8 °F 73% 30.02 in 10.0 mi West 15.0 mph - N/A   Clear
4:15 AM 12.2 °F -3.1 °F 6.8 °F 79% 30.01 in 10.0 mi NW 13.8 mph - N/A   Clear
4:35 AM 14.0 °F -2.0 °F 5.0 °F 67% 30.01 in 10.0 mi NW 16.1 mph 21.9 mph N/A   Clear
4:55 AM 12.2 °F -3.1 °F 5.0 °F 73% 30.02 in 10.0 mi NW 13.8 mph - N/A   Clear
5:15 AM 12.2 °F -3.1 °F 5.0 °F 73% 30.02 in 10.0 mi NW 13.8 mph - N/A   Clear
5:35 AM 12.2 °F -3.1 °F 5.0 °F 73% 30.01 in 10.0 mi NNW 13.8 mph - N/A   Clear
5:55 AM 12.2 °F -1.0 °F 5.0 °F 73% 30.03 in 10.0 mi NW 10.4 mph - N/A   Clear
6:15 AM 12.2 °F -4.3 °F 3.2 °F 67% 30.04 in 10.0 mi NW 16.1 mph - N/A   Clear
6:35 AM 10.4 °F -6.0 °F 3.2 °F 73% 30.04 in 10.0 mi NW 15.0 mph - N/A   Clear
6:55 AM 10.4 °F -5.4 °F 3.2 °F 73% 30.05 in 10.0 mi WNW 13.8 mph - N/A   Clear
7:15 AM 10.4 °F -6.6 °F 1.4 °F 67% 30.06 in 10.0 mi NW 16.1 mph - N/A   Clear
7:35 AM 10.4 °F -6.0 °F 1.4 °F 67% 30.06 in 10.0 mi NNW 15.0 mph - N/A   Clear
7:55 AM 10.4 °F -6.0 °F 3.2 °F 73% 30.07 in 10.0 mi NW 15.0 mph - N/A   Clear
8:15 AM 12.2 °F -1.0 °F 3.2 °F 67% 30.08 in 10.0 mi NW 10.4 mph - N/A   Clear
8:35 AM 12.2 °F 0.7 °F 3.2 °F 67% 30.08 in 10.0 mi NW 8.1 mph - N/A   Clear
8:55 AM 12.2 °F -1.0 °F 3.2 °F 67% 30.11 in 10.0 mi WNW 10.4 mph - N/A   Clear
9:15 AM 12.2 °F -3.7 °F 3.2 °F 67% 30.11 in 10.0 mi WNW 15.0 mph - N/A   Clear
9:35 AM 14.0 °F 1.2 °F 5.0 °F 67% 30.11 in 10.0 mi NW 10.4 mph - N/A   Clear
9:55 AM 14.0 °F 1.2 °F 5.0 °F 67% 30.11 in 10.0 mi NNW 10.4 mph - N/A   Clear
10:15 AM 15.8 °F 2.7 °F 5.0 °F 62% 30.11 in 10.0 mi NNW 11.5 mph - N/A   Clear
10:35 AM 15.8 °F 4.2 °F 5.0 °F 62% 30.12 in 10.0 mi NNW 9.2 mph - N/A   Clear
10:55 AM 17.6 °F 6.4 °F 6.8 °F 63% 30.12 in 10.0 mi NNW 9.2 mph - N/A   Clear
11:15 AM 17.6 °F 9.3 °F 6.8 °F 63% 30.12 in 10.0 mi NNW 5.8 mph - N/A   Clear
11:35 AM 17.6 °F 12.3 °F 6.8 °F 63% 30.12 in 10.0 mi Variable 3.5 mph - N/A   Clear
11:55 AM 19.4 °F 11.5 °F 6.8 °F 58% 30.12 in 10.0 mi NW 5.8 mph - N/A   Partly Cloudy
12:15 PM 19.4 °F 9.5 °F 8.6 °F 63% 30.14 in 10.0 mi West 8.1 mph - N/A   Scattered Clouds
12:35 PM 21.2 °F 10.1 °F 10.4 °F 63% 30.15 in 10.0 mi West 10.4 mph - N/A   Partly Cloudy
12:55 PM 21.2 °F 10.9 °F 10.4 °F 63% 30.15 in 10.0 mi West 9.2 mph - N/A   Partly Cloudy
1:15 PM 21.2 °F 10.9 °F 10.4 °F 63% 30.15 in 10.0 mi West 9.2 mph - N/A   Partly Cloudy
1:35 PM 23.0 °F 14.7 °F 10.4 °F 59% 30.15 in 10.0 mi West 6.9 mph - N/A   Clear
1:55 PM 23.0 °F 13.1 °F 12.2 °F 63% 30.14 in 10.0 mi West 9.2 mph - N/A   Clear
2:15 PM 24.8 °F 14.6 °F 14.0 °F 64% 30.13 in 10.0 mi West 10.4 mph - N/A   Clear
2:35 PM 24.8 °F 16.1 °F 12.2 °F 59% 30.13 in 10.0 mi West 8.1 mph 15.0 mph N/A   Clear
2:55 PM 26.6 °F 16.8 °F 14.0 °F 59% 30.14 in 10.0 mi West 10.4 mph - N/A   Clear
3:15 PM 26.6 °F 17.5 °F 14.0 °F 59% 30.14 in 10.0 mi WNW 9.2 mph 15.0 mph N/A   Clear
3:35 PM 26.6 °F 16.8 °F 15.8 °F 64% 30.14 in 10.0 mi West 10.4 mph - N/A   Clear
3:55 PM 28.4 °F 20.4 °F 15.8 °F 59% 30.14 in 10.0 mi West 8.1 mph - N/A   Clear
4:15 PM 28.4 °F 19.7 °F 17.6 °F 64% 30.14 in 10.0 mi NW 9.2 mph - N/A   Clear
4:35 PM 28.4 °F 20.4 °F 17.6 °F 64% 30.14 in 10.0 mi WNW 8.1 mph - N/A   Clear
4:55 PM 28.4 °F 20.4 °F 17.6 °F 64% 30.14 in 10.0 mi NW 8.1 mph - N/A   Clear
5:15 PM 30.2 °F 21.3 °F 19.4 °F 64% 30.14 in 10.0 mi WNW 10.4 mph - N/A   Clear
5:35 PM 30.2 °F 22.6 °F 19.4 °F 64% 30.14 in 10.0 mi NW 8.1 mph - N/A   Clear
5:55 PM 30.2 °F 20.2 °F 21.2 °F 69% 30.15 in 10.0 mi NW 12.7 mph - N/A   Clear
6:15 PM 30.2 °F 20.8 °F 21.2 °F 69% 30.15 in 10.0 mi NW 11.5 mph - N/A   Partly Cloudy
6:35 PM 30.2 °F 19.8 °F 19.4 °F 64% 30.16 in 10.0 mi NNW 13.8 mph - N/A   Clear
7:15 PM 28.4 °F 15.1 °F 19.4 °F 69% 30.17 in 10.0 mi NNW 20.7 mph 26.5 mph N/A   Overcast
7:35 PM 26.6 °F 13.8 °F 21.2 °F 80% 30.18 in 10.0 mi NNW 17.3 mph - N/A   Partly Cloudy
7:55 PM 26.6 °F 13.4 °F 19.4 °F 74% 30.19 in 10.0 mi NNW 18.4 mph - N/A   Clear
8:15 PM 24.8 °F 11.1 °F 19.4 °F 80% 30.19 in 10.0 mi NNW 18.4 mph - N/A   Clear
8:35 PM 24.8 °F 11.5 °F 19.4 °F 80% 30.20 in 10.0 mi North 17.3 mph - N/A   Clear
8:55 PM 24.8 °F 11.5 °F 19.4 °F 80% 30.21 in 10.0 mi NNW 17.3 mph 23.0 mph N/A   Mostly Cloudy
9:15 PM 23.0 °F 8.3 °F 17.6 °F 80% 30.22 in 10.0 mi NNW 19.6 mph - N/A   Overcast
9:35 PM 23.0 °F 6.9 °F 15.8 °F 74% 30.22 in 10.0 mi NNW 24.2 mph - N/A   Overcast
9:55 PM 23.0 °F 7.6 °F 14.0 °F 68% 30.23 in 10.0 mi NNW 21.9 mph - N/A   Overcast
10:15 PM 21.2 °F 5.2 °F 12.2 °F 68% 30.24 in 10.0 mi North 21.9 mph - N/A   Overcast
10:35 PM 21.2 °F 6.8 °F 12.2 °F 68% 30.25 in 10.0 mi NNW 17.3 mph 24.2 mph N/A   Overcast
10:55 PM 19.4 °F 3.6 °F 12.2 °F 74% 30.25 in 10.0 mi NNW 19.6 mph - N/A   Overcast
11:15 PM 17.6 °F 0.1 °F 10.4 °F 73% 30.26 in 10.0 mi NW 23.0 mph 29.9 mph N/A   Overcast
11:35 PM 17.6 °F 0.5 °F 8.6 °F 68% 30.27 in 10.0 mi NW 21.9 mph 28.8 mph N/A   Scattered Clouds
11:55 PM 15.8 °F -0.2 °F 10.4 °F 79% 30.27 in 10.0 mi NNW 17.3 mph 24.2 mph N/A   Scattered Clouds